Hourly Data Report for October 03, 2014

All times are specified in Local Standard Time (LST). Add 1 hour to adjust for Daylight Saving Time where and when it is observed.

CLYDE RIVER A
NUNAVUT

70°29'09.000" N
68°31'01.000" W
26.50 m
2400804
71090
YCY

Download Data

Hourly Data (October 2014)
Hourly Data Report for October 3, 2014
Temp Definition
°C
Dew Point Temp Definition
°C
Rel Hum Definition
%
Wind Dir Definition
10's deg

Wind Spd Definition
km/h
Visibility Definition
km
Stn Press Definition
kPa
Hmdx Definition


Wind Chill Definition


Weather Definition


TIME
00:00 Legend Double Dagger -3.6 -5.3 88 30 34 11.3 100.52   -12 Snow
01:00 Legend Double Dagger -3.5 -5.2 88 30 37 16.1 100.53   -12 Snow
02:00 Legend Double Dagger -3.0 -4.6 89 30 46 4.8 100.56   -12 Snow
03:00 Legend Double Dagger -3.3 -5.1 87 30 41 4.8 100.61   -12 Snow
04:00 Legend Double Dagger -2.9 -4.6 88 30 37 8.1 100.63   -11 Snow
05:00 Legend Double Dagger -3.1 -4.7 89 31 43 4.8 100.65   -12 Snow
06:00 Legend Double Dagger -3.0 -4.7 88 30 35 9.7 100.70   -11 Snow
07:00 Legend Double Dagger -2.6 -3.8 91 31 43 3.2 100.72   -11 Snow
08:00 Legend Double Dagger -2.7 -4.1 90 31 39 9.7 100.75   -11 Snow
09:00 Legend Double Dagger -1.9 -3.2 91 33 35 6.4 100.78   -9 Snow
10:00 Legend Double Dagger -2.2 -3.6 90 31 32 12.9 100.80   -10 Snow
11:00 Legend Double Dagger -2.4 -3.9 89 31 37 11.3 100.82   -10 Snow
12:00 Legend Double Dagger -2.2 -4.6 84 31 32 16.1 100.85   -10 Snow
13:00 Legend Double Dagger -2.5 -4.5 86 31 41 11.3 100.87   -11 Snow
14:00 Legend Double Dagger -2.7 -5.2 83 31 35 16.1 100.92   -11 Snow
15:00 Legend Double Dagger -2.8 -5.1 84 31 26 14.5 100.95   -10 Snow
16:00 Legend Double Dagger -2.9 -4.8 87 31 32 6.4 100.99   -10 Snow
17:00 Legend Double Dagger -3.1 -5.3 85 30 28 16.1 100.99   -10 Snow
18:00 Legend Double Dagger -2.9 -4.5 89 30 24 16.1 101.04   -10 Snow
19:00 Legend Double Dagger -2.5 -5.2 82 32 34 16.1 101.05   -10 Snow
20:00 Legend Double Dagger -2.7 -5.0 84 31 35 16.1 101.06   -11 Snow
21:00 Legend Double Dagger -3.0 -5.0 86 30 30 16.1 101.09   -10 Snow
22:00 Legend Double Dagger -2.5 -4.6 86 32 35 16.1 101.10   -10 Snow
23:00 Legend Double Dagger -2.8 -4.5 88 31 28 14.5 101.12   -10 Snow

Notes on Data Quality.

Legend

  • E = Estimated
  • M = Missing
  • NA = Not Available
  • ‡ = Partner data that is not subject to review by the National Climate Archives
Date modified: